EN

Hourly Weather Kytaihorod

Today, 5 August, Thursday

Time Temperature Precipitation Wind Pressure Humidity
00:00 +21°C° 0 mm 2 mps 745 mmHg 53%
01:00 +21°C° 0 mm 2 mps 745 mmHg 54%
02:00 +20°C° 0 mm 2 mps 745 mmHg 58%
03:00 +20°C° 0 mm 2 mps 745 mmHg 60%
04:00 +20°C° 0 mm 2 mps 744 mmHg 61%
05:00 +20°C° 0 mm 2 mps 744 mmHg 63%
06:00 +22°C° 0 mm 3 mps 744 mmHg 60%
07:00 +24°C° 0 mm 3 mps 744 mmHg 56%
08:00 +26°C° 0 mm 3 mps 744 mmHg 52%
09:00 +28°C° 0 mm 4 mps 744 mmHg 48%
10:00 +29°C° 0 mm 4 mps 744 mmHg 44%
11:00 +30°C° 0 mm 4 mps 744 mmHg 40%
12:00 +32°C° 0 mm 4 mps 744 mmHg 38%
13:00 +33°C° 0 mm 4 mps 743 mmHg 36%
14:00 +33°C° 0 mm 4 mps 743 mmHg 35%
15:00 +32°C° 0 mm 4 mps 742 mmHg 37%
16:00 +31°C° 0 mm 3 mps 742 mmHg 40%
17:00 +30°C° 0 mm 2 mps 742 mmHg 42%
18:00 +29°C° 0 mm 3 mps 741 mmHg 45%
19:00 +28°C° 0 mm 3 mps 741 mmHg 47%
20:00 +26°C° 0 mm 3 mps 741 mmHg 50%
21:00 +26°C° 0 mm 3 mps 741 mmHg 49%
22:00 +26°C° 0 mm 4 mps 741 mmHg 48%
23:00 +25°C° 0 mm 4 mps 740 mmHg 48%

Tomorrow, 6 August, Friday

Time Temperature Precipitation Wind Pressure Humidity
00:00 +23°C° 0 mm 4 mps 740 mmHg 53%
01:00 +22°C° 0 mm 4 mps 740 mmHg 59%
02:00 +22°C° 0 mm 3 mps 740 mmHg 65%
03:00 +21°C° 0 mm 3 mps 739 mmHg 70%
04:00 +21°C° 0 mm 3 mps 739 mmHg 75%
05:00 +21°C° 0 mm 3 mps 739 mmHg 80%
06:00 +23°C° 0 mm 4 mps 739 mmHg 69%
07:00 +26°C° 0 mm 5 mps 739 mmHg 59%
08:00 +28°C° 0 mm 6 mps 738 mmHg 48%
09:00 +30°C° 0 mm 6 mps 738 mmHg 44%
10:00 +32°C° 0 mm 6 mps 738 mmHg 39%
11:00 +34°C° 0 mm 6 mps 738 mmHg 34%
12:00 +35°C° 0 mm 6 mps 737 mmHg 32%
13:00 +36°C° 0 mm 6 mps 737 mmHg 31%
14:00 +36°C° 0 mm 6 mps 737 mmHg 29%
15:00 +36°C° 0 mm 6 mps 737 mmHg 31%
16:00 +36°C° 0 mm 5 mps 736 mmHg 32%
17:00 +35°C° 0 mm 4 mps 736 mmHg 34%
18:00 +32°C° 0.2 mm 5 mps 737 mmHg 46%
19:00 +28°C° 0.2 mm 5 mps 737 mmHg 58%
20:00 +23°C° 0.2 mm 6 mps 737 mmHg 71%
21:00 +22°C° 0.2 mm 5 mps 737 mmHg 77%
22:00 +22°C° 0.2 mm 3 mps 737 mmHg 83%
23:00 +21°C° 0.2 mm 2 mps 737 mmHg 89%

Day after tomorrow, 7 August, Saturday

Time Temperature Precipitation Wind Pressure Humidity
00:00 +20°C° 0 mm 2 mps 737 mmHg 91%
01:00 +20°C° 0 mm 2 mps 737 mmHg 92%
02:00 +21°C° 0 mm 1 mps 737 mmHg 94%
03:00 +19°C° 0 mm 2 mps 738 mmHg 94%
04:00 +19°C° 0 mm 2 mps 738 mmHg 95%
05:00 +19°C° 0 mm 2 mps 738 mmHg 95%
06:00 +20°C° 0 mm 3 mps 739 mmHg 88%
07:00 +21°C° 0 mm 4 mps 739 mmHg 81%
08:00 +23°C° 0 mm 5 mps 739 mmHg 75%
09:00 +25°C° 0 mm 5 mps 740 mmHg 69%
10:00 +26°C° 0 mm 5 mps 740 mmHg 63%
11:00 +27°C° 0 mm 5 mps 740 mmHg 57%
12:00 +27°C° 0 mm 5 mps 740 mmHg 55%
13:00 +28°C° 0 mm 5 mps 741 mmHg 52%
14:00 +28°C° 0 mm 5 mps 741 mmHg 50%
15:00 +28°C° 0 mm 5 mps 741 mmHg 48%
16:00 +28°C° 0 mm 6 mps 741 mmHg 47%
17:00 +27°C° 0 mm 6 mps 741 mmHg 45%
18:00 +26°C° 0 mm 5 mps 742 mmHg 48%
19:00 +23°C° 0 mm 5 mps 742 mmHg 50%
20:00 +21°C° 0 mm 4 mps 742 mmHg 53%
21:00 +20°C° 0 mm 4 mps 743 mmHg 57%
22:00 +19°C° 0 mm 4 mps 743 mmHg 61%
23:00 +18°C° 0 mm 3 mps 743 mmHg 65%

8 August, Sunday

Time Temperature Precipitation Wind Pressure Humidity
00:00 +18°C° 0 mm 3 mps 744 mmHg 66%
01:00 +17°C° 0 mm 3 mps 744 mmHg 67%
02:00 +17°C° 0 mm 3 mps 744 mmHg 68%
03:00 +16°C° 0 mm 3 mps 744 mmHg 69%
04:00 +16°C° 0 mm 3 mps 744 mmHg 70%
05:00 +16°C° 0 mm 3 mps 745 mmHg 71%
06:00 +18°C° 0 mm 3 mps 745 mmHg 63%
07:00 +21°C° 0 mm 4 mps 745 mmHg 54%
08:00 +23°C° 0 mm 4 mps 745 mmHg 46%
09:00 +25°C° 0 mm 4 mps 745 mmHg 42%
10:00 +27°C° 0 mm 4 mps 745 mmHg 38%
11:00 +28°C° 0 mm 4 mps 745 mmHg 34%
12:00 +29°C° 0 mm 4 mps 745 mmHg 33%
13:00 +30°C° 0 mm 4 mps 745 mmHg 32%
14:00 +30°C° 0 mm 4 mps 745 mmHg 30%
15:00 +30°C° 0 mm 4 mps 745 mmHg 31%
16:00 +30°C° 0 mm 4 mps 745 mmHg 32%
17:00 +30°C° 0 mm 4 mps 745 mmHg 33%
18:00 +28°C° 0 mm 4 mps 746 mmHg 40%
19:00 +26°C° 0 mm 3 mps 746 mmHg 47%
20:00 +22°C° 0 mm 3 mps 746 mmHg 53%
21:00 +22°C° 0 mm 3 mps 746 mmHg 57%
22:00 +21°C° 0 mm 2 mps 746 mmHg 60%
23:00 +21°C° 0 mm 2 mps 747 mmHg 63%

9 August, Monday

Time Temperature Precipitation Wind Pressure Humidity
00:00 +20°C° 0 mm 2 mps 746 mmHg 66%
01:00 +20°C° 0 mm 2 mps 746 mmHg 68%
02:00 +20°C° 0 mm 1 mps 746 mmHg 70%
03:00 +20°C° 0 mm 1 mps 746 mmHg 71%
04:00 +20°C° 0 mm 1 mps 746 mmHg 71%
05:00 +19°C° 0 mm 1 mps 746 mmHg 71%
06:00 +22°C° 0 mm 1 mps 747 mmHg 63%
07:00 +24°C° 0 mm 1 mps 747 mmHg 54%
08:00 +26°C° 0 mm 2 mps 747 mmHg 46%
09:00 +28°C° 0 mm 2 mps 747 mmHg 42%
10:00 +29°C° 0 mm 2 mps 747 mmHg 38%
11:00 +30°C° 0 mm 2 mps 747 mmHg 34%
12:00 +31°C° 0 mm 2 mps 747 mmHg 31%
13:00 +33°C° 0 mm 3 mps 747 mmHg 29%
14:00 +34°C° 0 mm 3 mps 746 mmHg 26%
15:00 +34°C° 0 mm 3 mps 746 mmHg 27%
16:00 +33°C° 0 mm 3 mps 746 mmHg 27%
17:00 +33°C° 0 mm 3 mps 746 mmHg 28%
18:00 +30°C° 0 mm 3 mps 746 mmHg 32%
19:00 +28°C° 0 mm 2 mps 746 mmHg 37%
20:00 +26°C° 0 mm 2 mps 746 mmHg 42%
21:00 +25°C° 0 mm 2 mps 746 mmHg 45%
22:00 +24°C° 0 mm 2 mps 746 mmHg 48%
23:00 +24°C° 0 mm 2 mps 746 mmHg 50%

10 August, Tuesday

Time Temperature Precipitation Wind Pressure Humidity
00:00 +23°C° 0 mm 1 mps 746 mmHg 51%
01:00 +23°C° 0 mm 1 mps 746 mmHg 52%
02:00 +22°C° 0 mm 1 mps 746 mmHg 53%
03:00 +22°C° 0 mm 1 mps 746 mmHg 53%
04:00 +22°C° 0 mm 1 mps 746 mmHg 53%
05:00 +22°C° 0 mm 1 mps 746 mmHg 53%
06:00 +24°C° 0 mm 1 mps 746 mmHg 48%
07:00 +26°C° 0 mm 1 mps 746 mmHg 43%
08:00 +29°C° 0 mm 2 mps 746 mmHg 37%
09:00 +30°C° 0 mm 2 mps 746 mmHg 34%
10:00 +32°C° 0 mm 2 mps 746 mmHg 30%
11:00 +34°C° 0 mm 2 mps 746 mmHg 27%
12:00 +35°C° 0 mm 2 mps 745 mmHg 25%
13:00 +35°C° 0 mm 2 mps 745 mmHg 24%
14:00 +36°C° 0 mm 2 mps 745 mmHg 23%
15:00 +36°C° 0 mm 2 mps 745 mmHg 24%
16:00 +35°C° 0 mm 2 mps 744 mmHg 25%
17:00 +35°C° 0 mm 2 mps 744 mmHg 26%
18:00 +31°C° 0 mm 3 mps 744 mmHg 39%
19:00 +28°C° 0 mm 5 mps 744 mmHg 52%
20:00 +24°C° 0 mm 6 mps 745 mmHg 65%
21:00 +23°C° 0 mm 6 mps 745 mmHg 72%
22:00 +21°C° 0 mm 5 mps 745 mmHg 79%
23:00 +20°C° 0 mm 5 mps 745 mmHg 86%
Show more